Погода Скулте

Погода Скулте : погода сейчас, прогноз погоды и архив. Всё, что Вы хотите узнать о погоде Скулте!

Поиск расширенной информации на нашем сайте:

Другие новости

Новости СМИ2

Главная страница сайта

Новости сайта

03.07.2017

Напоминаем, что на нашем специализированном сайте Метеоцентр.Азия вы можете получить высокодетализированные автоматические прогнозы погоды по пунктам России, СНГ и мира в авиационном формате (включающие направление и скорость ветра, видимость, явления погоды, количество и форму облачности, нижнюю и верхнюю границу облачности).


Погода Скулте - сегодня

Время (UTC), дата Ветер
(°,м/с) 
Видим.   Явления Облачность Т
(°С)
Тd
(°С)
f(%) Тe
(°С)
Pmin
(гПа)
dP
(гПа)
Po
(мм)
O2
(г/м3)
Тmin Tmax R s Состояние
почвы
00 08.12.17 190 (Ю) 5-8  н/о    н/о 
+4.2 +2.9 91 +2  998.9  -1.9  749  297           
03 08.12.17 180 (Ю) 4-8  н/о    н/о 
+3.1 +1.8 91 +1  996.9  -2  747  297           
06 08.12.17 170 (Ю) 4-7  н/о    н/о 
+2.6 +1.9 95 +1  995.6  -1.3  746  297           
09 08.12.17 180 (Ю) 4-7  н/о    н/о 
+3 +2.3 95 +1  995.4  -0.3  746  297           
12 08.12.17 180 (Ю) 3-7  н/о    н/о 
+3.2 +2.5 95 +2  995.4  746  297           
15 08.12.17 180 (Ю) 4-7  н/о    н/о 
+3.7 +2.7 93 +2  996.2  0.9  746  296           
18 08.12.17 180 (Ю) 4-7  н/о    н/о 
+3.6 +2.4 92 +2  997.2  0.9  747  297           
21 08.12.17 180 (Ю) 4-8  н/о    н/о 
+3.6 +1.9 89 +2  998.3  1.2  748  297           
00 09.12.17 180 (Ю) 4-7  н/о    н/о 
+3.3 +1.3 87 +1  998.5  0.2  748  298           
03 09.12.17 180 (Ю) 3-6  н/о    н/о 
+3.2 +0.7 84 +2  999  0.4  749  298           
06 09.12.17 180 (Ю) 4-8  н/о    н/о 
+2.5 +0 84 999.6  0.6  749  299           
09 09.12.17 180 (Ю) 4-8  н/о    н/о 
+2.2 -0.7 81 1001  1.4  750  300           
12 09.12.17 170 (Ю) 4-6  н/о    н/о 
+2.1 -0.5 83 1001.2  0.2  750  300           
15 09.12.17 160 (Ю) 4-6  н/о    н/о 
+0.9 -1.6 83 -1  1002.1  0.9  751  302           
18 09.12.17 170 (Ю) 4-6  н/о    н/о 
+1.1 -2.3 78 -1  1002.2  0.2  751  302           
12 12.12.17 170 (Ю) 5-12  н/о    н/о 
+3.9 +3.1 95 +2  990.1  -1.4  742  294           
15 12.12.17 180 (Ю) 4-7  н/о    н/о 
+5.8 +4.9 94 +4  990.7  0.6  742  292           
18 12.12.17 200 (Ю) 4-10  н/о    н/о 
+6.3 +4.3 87 +5  991.7  743  292           
21 12.12.17 200 (Ю) 7-11  н/о    н/о 
+5.7 +3.2 84 +3  992.4  0.8  744  293           
00 13.12.17 210 (ЮЗ) 8-16  н/о    н/о 
+4 +2 87 +1  993.2  0.7  744  295           
03 13.12.17 260 (З) 4-10  н/о    н/о 
+3 +2 93 +1  998.5  5.3  748  298           
06 13.12.17 260 (З) 4-9  н/о    н/о 
+2.7 -1.1 76 +1  1003.2  4.6  752  300           
09 13.12.17 220 (ЮЗ) 5-10  н/о    н/о 
+2.5 -0.1 83 1005.6  2.5  754  301           
12 13.12.17 200 (Ю) 4-8  н/о    н/о 
+2.8 -0.8 77 +1  1005.7  0.1  754  301           
15 13.12.17 220 (ЮЗ) 6-10  н/о    н/о 
+3.4 +1.6 88 +1  1006.4  0.7  754  300           
Время (UTC), дата Ветер
(°,м/с) 
Видим.   Явления Облачность Т
(°С)
Тd
(°С)
f(%) Тe
(°С)
Pmin
(гПа)
dP
(гПа)
Po
(мм)
O2
(г/м3)
Тmin Tmax R s Состояние
почвы

Для получения пояснительной информации подведите курсор к названию столбца.

ПОГОДА Скулте - архив

Всё, что Вы хотите узнать о погоде Скулте - удобно и подробно!

Выберите нужную дату (начиная с 1 января 2015* года) и нажмите кнопку "Найти".
Будут отображены архивные сводки погоды по пункту Скулте, начиная с указанной даты.


Отображать данные в формате CSV (для использования в таблицах Excel)


Внимание! Наш архив погоды предназначен исключительно для личного некоммерческого использования в познавательных целях. Если Вам необходимы официальные справки о состоянии погоды (для производственных, юридических, коммерческих и т.п. целей), обращайтесь в органы Росгидромета.

*Примечание: данная дата относится к архиву по метеостанциям СССР (Россия, СНГ, Балтия).
Архив по метеостанциям Зарубежной Европы и Азии (кроме Китая) хранится 10 дней, по другим регионам земного шара (Китай, Африка, Америка, Австралия, Океания) - 1 день.

Скулте - район местоположения метеостанции


Название, широта, долгота, высота метеостанции:
Скулте 57.3°ш. 24.4°д. 10 м над ур. моря [Латвия]

Дополнительная информация

В oтличие oт бoльшинства пoгoдных сайтoв мы публикуем пoдрoбную метеoинфoрмацию в детальнoм прoфессиoнальнoм фoрмате.

Характеристики температуры и влажнoсти вoздуха измеряются на высoте 2 м в тени вдали oт зданий и деревьев.
Скoрoсть ветра измеряется на высoте 10 м (на урoвне рoста челoвека скoрoсть ветра ниже в 1.5-2 раза). Если метеoстанция нахoдится в гoрoде или в лесу, тo скoрoсть ветра занижена на 2-4 м/с пo сравнению с oткрытым местoм. Скoрoсть ветра над акватoриями крупных рек и oзёр, а также на вершинах хoлмoв на 2-5 м/с выше, чем в oбычных услoвиях.
Атмoсфернoе давление в разных тoчках местнoсти мoжет значительнo oтличаться oт давления на метеoстанции, в зависимoсти oт услoвий рельефа (при пoдъёме на 10 м давление пoнижается примернo на 1 мм рт.ст.).